Location: Unspecified
(50.7693°N, 0.0000°E)
Time: 06:29:56
(UTC+00:00)

Transit 2A - Pass Details

Date: 21 August 2020
Orbit: 591 x 967 km, 66.7° (Epoch: 20 September)

Event Time Altitude Azimuth Distance (km) Brightness Sun altitude
Rises 21:25:30 0° 294° (WNW) 3,615 10.7 -18.7°
Reaches altitude 10° 21:28:54 10° 312° (NW) 2,700 10.0 -19.1°
Maximum altitude 21:33:17 19° 356° (N) 2,136 9.0 -19.5°
Drops below altitude 10° 21:37:41 10° 39° (NE) 2,707 9.0 -20.0°
Sets 21:41:06 0° 57° (ENE) 3,627 9.4 -20.3°
